Wind_Speed
2 5 7 9 9 10 10 12 18 22 23 22 22 25 24 22 18 17 17 17 16 16 17 16 18 19 20 19 20 16 15 16 16 18 17 17 18 18 19 21 21 23 24
5 7 9 8 8 10 13 18 24 24 20 20 22 18 15 17 18 18 17 17 17 19 19 21 22 21 19 20 21 24 22 18 17 17 19 18 18 18 18 19 22 23 24
9 10 9 9 12 16 19 24 26 19 18 18 17 16 17 17 20 21 22 21 18 18 19 19 21 25 26 24 24 26 27 26 21 17 16 17 18 19 20 19 21 24 24
8 8 11 16 19 21 24 25 21 18 18 18 17 18 21 23 23 24 25 25 25 23 21 21 22 23 24 28 28 29 31 30 26 23 17 16 18 18 19 21 21 22 24
11 13 16 20 23 24 24 21 18 18 19 19 20 21 22 23 25 28 26 24 22 20 21 21 23 23 25 28 28 32 32 33 31 25 24 19 17 18 16 18 21 21 22
15 19 22 20 24 26 24 21 20 21 23 25 25 27 27 27 27 24 25 21 19 20 20 20 20 19 23 25 25 27 30 32 34 31 22 24 22 20 19 18 18 20 21
20 19 22 25 25 22 20 20 20 22 24 27 30 31 31 28 25 25 18 20 25 26 26 26 27 27 26 25 27 26 24 27 31 35 28 21 24 24 22 21 20 20 20
18 20 21 22 18 18 22 24 25 24 25 27 27 28 14 21 13 14 25 24 24 28 28 30 32 35 36 37 35 34 32 27 26 30 35 30 22 25 26 24 22 22 21
18 19 18 17 21 30 32 31 28 27 28 26 23 16 10 7 23 22 24 29 24 30 36 33 32 33 32 33 36 36 38 39 32 28 30 36 29 25 27 28 24 22 24
18 20 23 29 34 33 28 23 27 28 28 27 21 17 14 16 14 19 20 30 34 34 36 37 35 31 27 25 25 28 33 36 39 36 31 30 33 29 26 31 29 25 24
26 29 29 29 26 23 25 23 24 25 25 21 21 23 23 20 14 15 26 25 27 31 29 29 26 26 23 20 22 23 25 29 33 33 34 31 30 29 25 29 31 28 25
24 30 29 28 25 18 18 20 22 22 21 19 17 15 15 16 18 17 18 22 25 32 27 20 20 22 22 20 20 21 23 26 29 32 28 27 25 24 31 31 31 28 24
26 26 24 25 18 15 12 14 19 22 18 16 14 14 16 18 18 18 19 22 26 34 31 32 25 18 18 22 21 19 21 24 26 28 23 20 21 23 26 30 29 27 24
27 25 22 23 23 24 27 14 14 17 15 16 16 17 16 16 16 18 20 24 32 29 35 35 33 25 20 19 17 14 14 15 18 23 26 24 26 25 26 22 19 19 21
28 24 19 20 22 22 9 12 15 15 15 15 17 18 20 19 17 18 20 22 26 33 37 32 33 28 21 20 19 11 11 10 11 18 21 30 26 24 24 30 24 24 21
21 19 16 25 18 19 13 10 12 14 16 17 19 21 21 21 21 23 27 29 30 33 38 39 42 33 23 20 23 18 7 11 11 10 15 13 23 28 28 26 30 32 29
17 20 21 25 17 16 8 11 14 15 19 20 24 24 23 23 27 31 34 34 33 32 35 39 36 33 26 19 22 22 2 8 9 12 12 13 12 21 26 25 30 26 27
17 17 18 25 19 10 9 12 17 18 22 24 24 23 27 31 35 34 30 30 30 30 29 32 30 29 23 17 19 15 18 8 12 13 14 14 13 13 21 22 18 13 11
12 19 22 20 8 7 11 15 18 21 25 26 27 29 33 35 34 30 29 29 30 25 23 20 25 24 24 23 23 23 18 16 21 13 13 14 13 13 17 26 21 15 13
20 18 16 12 9 11 15 19 22 24 25 25 29 33 34 32 30 29 29 29 25 27 26 27 24 23 21 22 24 23 23 23 18 15 15 14 11 8 12 17 24 18 17
15 16 12 11 11 15 18 20 23 25 27 31 33 33 32 30 26 25 26 28 29 27 26 24 24 24 19 16 21 20 22 24 20 19 17 14 9 5 7 7 12 15 15
13 13 9 11 16 20 19 20 24 27 30 34 32 32 31 29 28 25 28 23 20 22 24 25 24 23 24 22 15 17 14 16 18 18 17 16 16 6 2 7 8 14 17
13 14 13 16 20 15 18 24 25 29 31 29 29 29 27 24 23 21 19 17 21 20 16 19 20 23 22 20 22 18 14 15 18 16 17 19 19 19 13 7 13 12 14
16 17 16 13 11 19 23 24 28 27 26 26 25 22 22 21 18 17 24 22 20 19 20 18 19 19 18 19 21 22 23 23 23 23 20 23 21 21 22 20 16 12 14
17 15 12 11 22 18 22 26 25 24 24 23 20 19 19 19 17 19 22 23 20 18 18 20 19 19 22 23 16 15 20 22 21 21 21 22 23 20 19 21 22 24 20
15 15 15 15 15 19 22 22 21 22 23 22 20 19 17 18 18 19 19 22 20 20 19 18 17 17 18 21 25 24 22 13 15 16 14 15 16 13 8 13 17 19 20
Wind_Direction
314 312 313 323 329 327 330 332 327 324 323 314 311 318 320 315 315 310 304 302 287 283 291 293 293 297 302 312 316 318 314 305 293 287 285 276 270 259 251 248 246 242 241
273 284 288 286 286 302 307 310 321 324 319 316 321 317 309 308 310 310 310 300 294 290 284 290 285 280 277 279 288 296 300 308 309 299 291 283 276 272 261 255 249 247 242
271 258 250 268 290 293 303 315 319 317 317 317 315 309 307 307 306 304 308 309 305 298 294 285 279 282 272 263 269 276 287 293 295 301 294 287 281 273 267 259 253 247 243
261 267 284 290 293 302 315 319 314 309 307 303 299 300 305 306 306 309 311 310 308 304 299 292 288 279 275 270 265 266 273 279 288 289 290 281 280 277 272 266 260 255 249
292 297 301 306 311 318 320 315 308 306 304 301 298 293 294 299 303 307 310 309 303 298 294 295 291 288 283 276 271 267 266 269 273 282 288 284 281 273 273 272 267 260 256
311 309 308 314 323 324 317 310 307 306 305 304 302 300 301 303 307 305 304 297 295 295 291 288 288 285 279 281 278 271 270 265 260 267 276 283 284 282 277 278 275 268 259
321 312 314 316 319 313 308 307 306 305 304 307 311 302 301 302 293 293 286 293 294 293 292 292 292 292 286 283 284 282 277 271 268 256 258 265 273 275 276 271 273 272 265
312 311 311 310 310 315 319 318 317 320 325 325 323 323 312 303 276 267 293 296 298 298 294 294 295 294 295 292 286 281 281 279 275 266 253 256 259 266 270 269 266 269 263
299 301 301 305 317 323 320 319 317 319 323 326 321 323 313 287 303 305 292 294 297 298 302 305 301 300 297 293 290 289 279 277 277 275 265 253 254 259 265 265 266 269 264
304 311 318 317 313 313 313 312 321 326 324 323 315 305 295 297 311 306 295 298 303 300 303 304 308 302 300 295 287 278 278 276 273 272 271 268 257 249 259 265 264 264 263
322 323 321 316 319 313 306 307 316 321 321 319 314 310 307 306 307 297 306 312 308 310 308 304 312 305 292 286 279 277 271 267 270 271 269 268 264 247 239 254 263 259 258
323 327 324 314 306 300 320 329 325 322 322 325 323 316 318 326 322 323 314 317 315 312 312 318 312 315 319 284 273 277 273 272 266 265 265 263 262 248 245 247 251 257 249
318 318 304 291 284 281 299 315 329 332 330 336 335 330 327 323 321 322 321 322 320 312 313 314 315 321 312 296 283 279 275 272 268 265 260 255 247 255 248 249 246 247 240
315 313 303 282 287 294 297 336 326 318 323 331 329 326 322 323 319 317 316 317 311 306 309 311 313 308 309 303 293 279 274 271 280 271 255 250 243 242 247 245 237 225 226
313 306 284 265 284 300 307 317 313 318 314 321 323 320 316 316 303 298 300 295 302 305 305 307 308 309 296 295 283 302 281 264 278 269 264 254 253 243 233 244 240 237 220
299 273 259 286 283 302 313 311 309 317 312 314 319 318 312 308 298 297 298 297 296 294 293 296 297 295 294 284 293 252 307 266 261 284 273 277 250 245 241 232 237 242 240
285 264 275 314 314 308 312 313 315 313 316 316 320 315 308 300 302 303 302 300 297 297 295 296 292 284 282 276 276 275 236 7 282 271 282 288 287 259 247 238 230 234 239
308 294 300 308 295 278 311 313 320 316 319 317 315 308 305 303 304 306 304 301 301 302 297 296 297 288 273 269 252 272 278 277 329 307 275 281 293 291 255 235 206 183 201
299 301 295 294 264 287 303 313 318 318 318 317 311 304 303 306 308 307 303 302 306 304 299 312 307 292 275 249 264 267 281 290 274 303 308 279 285 305 294 217 189 190 204
289 295 290 273 261 293 297 307 317 316 308 304 303 302 304 305 305 304 305 305 303 300 296 290 300 303 284 254 257 262 268 275 280 270 283 303 297 304 297 222 195 197 200
290 288 290 267 276 308 295 306 308 306 306 306 304 303 304 303 301 297 299 297 299 297 294 294 295 293 302 266 246 253 261 271 271 268 257 263 305 293 271 250 205 195 196
315 292 273 285 294 298 297 305 310 309 310 308 310 310 307 307 306 301 300 301 296 293 287 284 286 285 285 284 264 249 257 262 268 265 272 257 254 251 211 232 246 189 197
329 274 277 296 291 288 308 312 310 312 313 314 312 311 313 314 311 313 320 316 305 302 283 283 284 280 280 281 281 275 268 263 265 268 274 267 252 237 232 208 205 187 188
309 309 305 289 295 313 310 313 313 317 320 321 324 323 321 322 329 328 326 315 308 304 291 287 290 285 276 270 267 266 264 264 264 266 267 269 262 253 238 238 228 229 203
295 301 302 299 308 308 313 318 321 325 328 332 331 330 327 326 330 328 319 322 321 320 300 288 285 283 273 263 272 258 260 257 263 264 257 255 260 263 254 240 235 235 242
304 297 303 305 304 312 318 324 328 334 336 339 340 336 331 328 336 329 323 317 318 319 314 307 299 295 286 268 252 248 250 241 256 268 271 250 256 260 267 255 241 236 231
Height
1572 1571 1571 1570 1570 1570 1568 1567 1566 1564 1563 1562 1559 1558 1555 1553 1550 1548 1547 1546 1545 1544 1543 1542 1541 1539 1539 1539 1538 1539 1538 1538 1538 1536 1534 1535 1534 1536 1535 1536 1536 1538 1540
1571 1570 1570 1569 1568 1567 1566 1564 1562 1560 1558 1557 1556 1554 1553 1550 1547 1545 1544 1543 1541 1540 1538 1537 1536 1536 1534 1533 1533 1532 1532 1532 1530 1529 1528 1528 1529 1530 1530 1530 1532 1534 1535
1569 1568 1568 1567 1566 1564 1562 1560 1558 1556 1555 1553 1552 1551 1549 1547 1544 1541 1540 1539 1538 1536 1534 1533 1532 1531 1530 1529 1527 1526 1526 1525 1526 1525 1522 1523 1525 1525 1525 1526 1528 1530 1530
1567 1567 1566 1565 1563 1560 1558 1556 1555 1552 1550 1548 1547 1546 1545 1543 1540 1537 1535 1534 1532 1531 1530 1528 1527 1525 1524 1523 1522 1521 1521 1521 1520 1521 1522 1522 1521 1522 1520 1521 1523 1524 1525
1566 1565 1564 1563 1560 1557 1554 1553 1551 1548 1545 1543 1542 1541 1541 1539 1536 1533 1530 1528 1526 1526 1524 1522 1521 1520 1518 1517 1516 1515 1515 1515 1516 1515 1514 1515 1516 1516 1518 1518 1519 1518 1520
1564 1563 1561 1559 1556 1553 1551 1550 1548 1545 1541 1538 1537 1535 1535 1533 1530 1527 1526 1523 1521 1520 1519 1518 1515 1513 1512 1511 1509 1509 1508 1508 1509 1509 1510 1508 1507 1508 1508 1510 1511 1514 1516
1561 1559 1557 1555 1552 1550 1546 1544 1543 1540 1538 1533 1530 1529 1528 1528 1525 1522 1520 1518 1516 1515 1513 1512 1510 1508 1506 1505 1503 1501 1501 1501 1501 1502 1503 1504 1503 1503 1504 1504 1506 1508 1511
1557 1555 1553 1550 1548 1546 1543 1540 1537 1535 1532 1529 1526 1523 1520 1520 1518 1517 1515 1513 1511 1509 1508 1506 1504 1501 1499 1497 1497 1495 1493 1494 1494 1495 1496 1498 1498 1499 1500 1501 1503 1504 1503
1554 1551 1549 1546 1544 1541 1538 1535 1532 1529 1527 1526 1524 1523 1519 1515 1512 1511 1510 1507 1505 1503 1502 1500 1498 1495 1493 1491 1489 1487 1487 1485 1487 1488 1488 1490 1491 1492 1493 1495 1496 1496 1499
1550 1548 1546 1543 1540 1537 1533 1530 1527 1525 1523 1521 1520 1519 1518 1515 1511 1505 1504 1501 1499 1497 1495 1493 1492 1489 1487 1484 1482 1480 1478 1478 1478 1479 1481 1481 1484 1485 1485 1486 1489 1491 1492
1547 1545 1542 1539 1535 1532 1529 1526 1522 1521 1519 1518 1516 1513 1511 1509 1508 1505 1498 1496 1493 1489 1488 1488 1485 1482 1480 1478 1474 1473 1472 1471 1470 1471 1472 1473 1475 1477 1478 1478 1481 1483 1485
1543 1539 1536 1533 1531 1529 1526 1523 1521 1517 1516 1513 1512 1510 1508 1506 1502 1499 1497 1495 1491 1485 1484 1484 1481 1478 1475 1473 1469 1467 1465 1464 1464 1464 1464 1466 1468 1469 1470 1472 1474 1477 1479
1538 1535 1532 1528 1525 1522 1520 1518 1517 1517 1514 1509 1508 1507 1505 1504 1500 1497 1494 1491 1487 1483 1479 1478 1477 1475 1471 1467 1464 1461 1459 1458 1457 1457 1458 1459 1460 1463 1463 1466 1468 1470 1473
1532 1528 1525 1522 1519 1518 1516 1513 1514 1513 1512 1508 1506 1504 1502 1500 1498 1495 1491 1487 1481 1479 1475 1472 1471 1470 1468 1462 1460 1456 1455 1454 1452 1451 1451 1453 1453 1455 1456 1461 1462 1464 1466
1524 1521 1519 1517 1516 1513 1512 1511 1512 1510 1508 1505 1503 1501 1499 1496 1494 1491 1488 1486 1482 1471 1465 1464 1464 1464 1462 1458 1456 1453 1451 1450 1449 1447 1446 1446 1447 1448 1449 1454 1458 1460 1461
1517 1516 1515 1514 1511 1509 1509 1508 1507 1506 1504 1502 1499 1496 1494 1491 1489 1486 1484 1481 1478 1472 1462 1461 1456 1456 1456 1453 1450 1449 1447 1446 1445 1443 1442 1442 1441 1443 1444 1446 1451 1453 1457
1514 1512 1511 1509 1508 1507 1506 1506 1505 1502 1500 1497 1494 1491 1489 1486 1482 1479 1476 1472 1468 1465 1458 1451 1449 1447 1447 1447 1446 1445 1443 1442 1441 1440 1438 1437 1437 1437 1438 1440 1443 1446 1451
1510 1510 1508 1506 1505 1504 1503 1502 1500 1498 1495 1492 1489 1485 1482 1479 1475 1472 1468 1464 1460 1457 1453 1446 1442 1440 1440 1442 1441 1439 1439 1439 1438 1437 1435 1433 1432 1433 1434 1435 1437 1439 1446
1507 1506 1504 1501 1501 1500 1499 1498 1496 1493 1489 1487 1483 1480 1476 1471 1467 1464 1461 1457 1453 1449 1447 1443 1436 1435 1433 1435 1436 1435 1436 1434 1435 1435 1433 1430 1429 1428 1427 1430 1434 1437 1441
1502 1500 1498 1497 1497 1497 1496 1494 1490 1487 1485 1482 1478 1474 1469 1464 1460 1457 1453 1450 1447 1443 1440 1438 1434 1430 1428 1429 1429 1430 1431 1431 1432 1432 1432 1428 1426 1426 1425 1425 1427 1432 1438
1497 1496 1494 1493 1494 1493 1492 1489 1486 1483 1479 1475 1471 1466 1461 1457 1454 1451 1447 1443 1440 1437 1434 1432 1430 1428 1425 1424 1424 1425 1426 1425 1425 1426 1427 1427 1425 1423 1423 1424 1425 1429 1433
1494 1493 1491 1490 1490 1489 1487 1484 1481 1478 1474 1468 1462 1457 1453 1449 1446 1443 1439 1436 1435 1431 1428 1427 1425 1424 1422 1420 1420 1420 1421 1421 1421 1421 1421 1422 1423 1423 1422 1423 1425 1427 1431
1492 1490 1488 1487 1486 1485 1483 1480 1477 1473 1467 1462 1456 1451 1446 1443 1440 1436 1433 1431 1428 1426 1423 1422 1419 1419 1417 1417 1416 1415 1416 1417 1416 1418 1417 1416 1418 1420 1422 1423 1425 1427 1429
1489 1487 1485 1484 1483 1481 1478 1475 1472 1467 1462 1456 1451 1446 1442 1438 1435 1433 1430 1426 1423 1420 1418 1417 1415 1413 1412 1411 1411 1411 1411 1411 1411 1412 1413 1411 1413 1414 1416 1420 1422 1424 1425
1486 1484 1482 1482 1480 1477 1474 1470 1466 1462 1456 1452 1447 1443 1439 1435 1433 1431 1426 1422 1418 1415 1413 1411 1409 1407 1406 1405 1405 1405 1405 1405 1405 1405 1407 1408 1408 1409 1410 1413 1416 1420 1423
1483 1481 1479 1478 1476 1473 1470 1466 1462 1457 1452 1448 1444 1440 1437 1433 1430 1427 1423 1419 1415 1412 1408 1406 1404 1402 1400 1398 1398 1399 1400 1400 1402 1402 1403 1404 1404 1406 1406 1407 1410 1413 1416